Location: Cucq
(50.4773°N, 1.6202°E)
Time: 20:43:31
(UTC+00:00)

Cosmos 2151 Rocket - Pass Details

Date: 07 August 2020
Orbit: 618 x 641 km, 82.5° (Epoch: 22 September)

Event Time Altitude Azimuth Distance (km) Brightness Sun altitude
Exits shadow 01:12:31 54° 159° (SSE) 763 3.7 -21.3°
Maximum altitude 01:13:24 71° 98° (E) 662 3.6 -21.2°
Drops below altitude 10° 01:17:48 10° 14° (NNE) 2,000 7.3 -21.0°
Sets 01:20:03 0° 12° (NNE) 2,910 8.5 -20.9°
